Upper Edmonton, United Kingdom
Current Conditions -  °F | °C
As of 6:20 PM on Thursday 18 Dec 2014 (Local Time) from EGLC Reporting Station
Broken Clouds Broken Clouds  
Wind Chill: 55°   Ceiling: 1600
Heat Index: 55°   Visibility: 6mi
Dew Point: 52°   Wind: 18mph
Humidity: 88%   Direction: 240°WSW
Pressure: 29.83"   Gusts: 32mph
Location:  51.61°N, 0.09°W
Report Text: EGLC 181820Z 24016G28KT 9999 SCT011 BKN016 13/11 Q1010
Loading
Personal Weather Stations






























Interactive Weather Map New forecast layout! Learn more

10-Day Weather Forecast

Advertisements
Track Severe Weather on mobile